Regional Weather Roundup
Issued by NWS

Home | Current Version | Previous Version | Graphics & Text | Print | Product List | Glossary On
Versions: 1 2 3 4 5 6 7 8 9 10 11 12 13 14 15 16 17 18 19 20 21 22 23 24 25 26 27 28 29 30 31 32 33 34 35 36 37 38 39 40 41 42 43 44 45 46 47 48 49 50
413
ASUS43 KBIS 130510
RWRND

NORTH DAKOTA REGIONAL WEATHER ROUNDUP
NATIONAL WEATHER SERVICE BISMARCK ND
1100 PM CST TUE DEC 12 2017

NOTE: "FAIR" INDICATES FEW OR NO CLOUDS BELOW 12,000 FEET WITH NO
SIGNIFICANT WEATHER AND/OR OBSTRUCTIONS TO VISIBILITY.


NDZ001>003-009>011-017-130600-
NORTHWEST NORTH DAKOTA

CITY           SKY/WX    TMP DP  RH WIND       PRES   REMARKS
WILLISTON      CLOUDY    45  28  51 NW25G33   29.78R
MINOT          CLOUDY    42  31  64 W25G39    29.60R
MINOT AFB      CLOUDY    40  30  68 NW29G36   29.58R
$$

NDZ018>021-031>035-040>046-130600-
SOUTHWEST NORTH DAKOTA

CITY           SKY/WX    TMP DP  RH WIND       PRES   REMARKS
BISMARCK       CLOUDY    48  26  42 NW23G37   29.57S
DICKINSON      MOCLDY    46  27  47 NW37G46   29.72R
GARRISON         N/A     42  30  62 NW33G41   29.60R
HETTINGER ARPT CLOUDY    48  20  32 NW25G35   29.77R
$$

NDZ004>008-012>016-024-026-027-054-130600-
NORTHEAST NORTH DAKOTA

CITY           SKY/WX    TMP DP  RH WIND       PRES   REMARKS
GRAND FORKS    CLOUDY    32  29  88 S5        29.41S
GRND FRKS AFB  LGT RAIN  41  28  60 N12       29.40F
DEVILS LAKE    CLOUDY    39  27  62 NW15      29.45R
$$

NDZ022-023-025-028>030-036>039-047>053-130600-
SOUTHEAST NORTH DAKOTA

CITY           SKY/WX    TMP DP  RH WIND       PRES   REMARKS
FARGO          CLOUDY    33  28  81 S7        29.42F
JAMESTOWN      CLOUDY    42  26  53 W17       29.44F
$$





USA.gov is the U.S. government's official web portal to all federal, state and local government web resources and services.